Regional Weather Roundup
Issued by NWS

Home | Current Version | Previous Version | Graphics & Text | Print | Product List | Glossary On
Versions: 1 2 3 4 5 6 7 8 9 10 11 12 13 14 15 16 17 18 19 20 21 22 23 24 25 26 27 28 29 30 31 32 33 34 35 36 37 38 39 40 41 42 43 44 45 46 47 48 49 50
000
ASUS45 KSLC 221310
RWRUT

UTAH REGIONAL WEATHER ROUNDUP
NATIONAL WEATHER SERVICE SALT LAKE CITY UT
600 AM MST MON DEC 22 2014

UTZ001>011-023>025-221400-

NORTHERN UTAH

CITY           SKY/WX    TMP DP  RH WIND       PRES   REMARKS
BRIGHAM CITY   CLOUDY    40  33  75 CALM      29.99S
HILL AFB       CLOUDY    37  37 100 S10       29.97F WCI  30
LOGAN          CLOUDY    39  31  72 N8        29.97S WCI  33
OGDEN          LGT RAIN  39  37  92 SE6       29.97F WCI  35
PROVO AIRPORT  CLOUDY    37  36  93 W8        30.01F WCI  31
SALT LAKE CITY LGT RAIN  38  37  97 S9        30.00S FOG     WCI  31
VERNAL         LGT RAIN  35  31  85 CALM      29.87R
WENDOVER       CLOUDY    43  36  75 CALM      30.01R
HEBER CITY     MIX PCPN  32  32 100 CALM      29.93F
WEST JORDAN    CLOUDY    34  34 100 S5        30.01F WCI  30

$$

UTZ012>022-026-027-221400-

SOUTHERN/CENTRAL UTAH

CITY           SKY/WX    TMP DP  RH WIND       PRES   REMARKS
BLANDING       PTCLDY    33  32  94 CALM      30.01S
BRYCE CANYON   LGT RAIN  36  32  85 NW12      30.06S WCI  28
CEDAR CITY     CLEAR     38  32  79 SE8       30.05F WCI  32
DELTA          CLOUDY    39  39  98 SW6       30.02R
MILFORD        PTCLDY    30  28  92 SW8       30.02F WCI  22
MOAB/CYNLANDS  CLEAR     30  28  92 CALM      29.89F
PRICE          CLOUDY    41  28  60 NW7       29.90F
ST GEORGE      CLOUDY    36  30  80 CALM      30.09R
KANAB          CLEAR     28  28 100 NE5       30.10R WCI  23

$$

REGIONAL REPORTS     COLORADO/ARIZONA

CITY           SKY/WX    TMP DP  RH WIND       PRES   REMARKS
CRAIG, CO      CLOUDY    32  25  75 W16       29.85S WCI  21
GRAND JUNCTION CLOUDY    32  31  96 E3        29.88S
RIFLE          CLOUDY    35  31  85 SW3       29.87F
MONTROSE       CLOUDY    33  30  88 E3        29.90F
CORTEZ         MOCLDY    34  31  88 NE8       29.95S WCI  27
PAGE, AZ       PTCLDY    37  31  78 CALM      29.97F
GRAND CANYON   PTCLDY    23  22  96 CALM      30.09S
KINGMAN        CLEAR     35  32  88 S3        30.09R
FLAGSTAFF      PTCLDY    40  30  67 NW6       30.08R

$$

REGIONAL REPORTS    NEVADA/IDAHO/WYOMING

CITY           SKY/WX    TMP DP  RH WIND       PRES   REMARKS
LAS VEGAS, NV  PTCLDY    45  37  73 S14       30.02F
ELY            CLOUDY    44  35  70 VRB3      30.14F
ELKO           CLOUDY    43  40  89 W14       30.09S
POCATELLO, ID  CLOUDY    35  35 100 W21       29.98R WCI  24
BURLEY         CLOUDY    38  35  89 W17G29    30.00R WCI  28
EVANSTON, WY   LGT SNOW  30  28  92 W18       29.90F FOG     WCI  18
ROCK SPRINGS   CLOUDY    28  22  78 W17G28    29.84F WCI  16
KEMMERER       LGT SNOW  28  27  93 W14G21    29.88S WCI  17

$$


USA.gov is the U.S. government's official web portal to all federal, state and local government web resources and services.